CW6353 Weather Reports


Display with metric or nautical units.
time (UTC)temp
F
wind
direction
speed
MPH
gust
MPH
rain 1hr
in
rain 24hr
in
rain mn
in
humidity
%
barometer
mb
20260906174003 93 147 1.0 5.0 0.00 0.02 0.02 52 1012.7
20260906173504 93 113 2.0 5.0 0.00 0.02 0.02 54 1012.8
20260906173004 92 30 3.0 5.0 0.00 0.02 0.02 55 1012.8
20260906172503 91 319 2.0 6.0 0.00 0.02 0.02 57 1012.9
20260906172004 91 267 2.0 6.0 0.00 0.02 0.02 58 1012.9
20260906171505 91 317 3.0 6.0 0.00 0.02 0.02 60 1013.0
20260906171008 90 209 2.0 7.0 0.00 0.02 0.02 59 1013.0
20260906170504 90 325 3.0 7.0 0.00 0.02 0.02 59 1013.1
20260906170002 90 237 2.0 7.0 0.00 0.02 0.02 60 1013.1
20260906165506 90 233 3.0 7.0 0.00 0.02 0.02 61 1013.2
20260906165003 90 327 3.0 5.0 0.00 0.02 0.02 58 1013.3
20260906164505 90 215 3.0 5.0 0.00 0.02 0.02 57 1013.3
20260906164003 90 187 3.0 5.0 0.00 0.02 0.02 58 1013.4
20260906163503 89 71 1.0 6.0 0.00 0.02 0.02 62 1013.4
20260906163005 88 325 2.0 6.0 0.00 0.02 0.02 62 1013.5
20260906162504 88 268 2.0 5.0 0.00 0.02 0.02 65 1013.5
20260906162002 88 221 3.0 5.0 0.00 0.02 0.02 62 1013.6
20260906161510 87 211 2.0 4.0 0.00 0.02 0.02 62 1013.7
20260906161002 87 311 2.0 3.0 0.00 0.02 0.02 64 1013.6
20260906160506 87 325 2.0 4.0 0.00 0.02 0.02 65 1013.7
20260906160024 87 252 2.0 4.0 0.00 0.02 0.02 65 1013.6
20260906155503 87 9 1.0 2.0 0.00 0.02 0.02 66 1013.7
20260906155010 87 348 1.0 2.0 0.00 0.02 0.02 66 1013.7
20260906154509 86 111 1.0 3.0 0.00 0.02 0.02 67 1013.7
20260906154013 86 223 1.0 4.0 0.00 0.02 0.02 67 1013.7
20260906153503 86 161 1.0 4.0 0.00 0.02 0.02 68 1013.7
20260906153005 86 217 1.0 4.0 0.00 0.02 0.02 69 1013.7
20260906152504 85 45 1.0 3.0 0.00 0.02 0.02 69 1013.6
20260906152004 85 194 1.0 4.0 0.00 0.02 0.02 72 1013.6
20260906151505 84 153 3.0 4.0 0.00 0.02 0.02 73 1013.6
20260906151003 84 157 2.0 3.0 0.00 0.02 0.02 76 1013.7
20260906150503 83 143 2.0 5.0 0.00 0.02 0.02 75 1013.6
20260906150019 83 156 2.0 5.0 0.00 0.02 0.02 75 1013.7
20260906145506 83 304 0.0 0.0 0.00 0.02 0.02 77 1013.7
20260906145004 82 191 0.0 0.0 0.00 0.02 0.02 75 1013.7
20260906144517 83 195 0.0 0.0 0.00 0.02 0.02 74 1013.7
20260906144011 83 191 0.0 0.0 0.00 0.02 0.02 74 1013.7
20260906143503 83 296 0.0 0.0 0.00 0.02 0.02 73 1013.6
20260906143025 83 296 0.0 0.0 0.00 0.02 0.02 75 1013.7
20260906142509 82 296 0.0 2.0 0.00 0.02 0.02 73 1013.7
20260906142003 82 296 0.0 2.0 0.00 0.02 0.02 74 1013.5
20260906141506 82 303 0.0 1.0 0.00 0.02 0.02 74 1013.6
20260906141005 82 306 0.0 1.0 0.00 0.02 0.02 75 1013.5
20260906140507 81 297 0.0 2.0 0.00 0.02 0.02 77 1013.7
20260906140010 81 297 0.0 2.0 0.00 0.02 0.02 80 1013.8
20260906135503 80 297 0.0 2.0 0.00 0.02 0.02 80 1013.8
20260906135006 80 297 0.0 2.0 0.00 0.02 0.02 80 1013.6
20260906134512 79 297 0.0 2.0 0.00 0.02 0.02 86 1013.7
20260906134010 79 278 1.0 2.0 0.00 0.02 0.02 85 1013.5
20260906133510 78 247 0.0 2.0 0.00 0.02 0.02 87 1013.4
20260906133008 78 246 0.0 2.0 0.00 0.02 0.02 87 1013.3
20260906132514 78 133 0.0 2.0 0.00 0.02 0.02 88 1013.5
20260906132009 77 217 0.0 2.0 0.00 0.02 0.02 88 1013.4
20260906131507 77 287 1.0 2.0 0.00 0.02 0.02 91 1013.5
20260906131014 76 242 0.0 2.0 0.00 0.02 0.02 92 1013.5
20260906130505 76 132 0.0 2.0 0.00 0.02 0.02 93 1013.7
20260906130015 75 135 0.0 3.0 0.00 0.02 0.02 93 1013.6
20260906125507 75 203 1.0 3.0 0.00 0.02 0.02 93 1013.5
20260906125006 74 45 0.0 2.0 0.00 0.02 0.02 92 1013.6
20260906124518 74 44 1.0 2.0 0.00 0.02 0.02 92 1013.6
20260906124011 74 44 0.0 0.0 0.00 0.02 0.02 93 1013.6
20260906123503 74 44 0.0 0.0 0.00 0.02 0.02 92 1013.6
20260906123033 73 44 0.0 0.0 0.00 0.02 0.02 92 1013.6
20260906122508 73 44 0.0 2.0 0.00 0.02 0.02 92 1013.6
20260906122014 73 44 0.0 2.0 0.00 0.02 0.02 92 1013.5
20260906121523 73 44 0.0 2.0 0.00 0.02 0.02 92 1013.4
20260906121008 73 44 1.0 2.0 0.00 0.02 0.02 92 1013.5
20260906120516 73 44 1.0 2.0 0.00 0.02 0.02 92 1013.4
20260906120019 73 44 0.0 0.0 0.00 0.02 0.02 91 1013.4
20260906115504 73 44 0.0 0.0 0.00 0.02 0.02 91 1013.4
20260906115006 74 44 0.0 0.0 0.00 0.02 0.02 91 1013.3
20260906114511 74 44 0.0 2.0 0.00 0.02 0.02 91 1013.3
20260906114011 74 44 0.0 2.0 0.00 0.02 0.02 91 1013.3
20260906113510 74 44 0.0 2.0 0.00 0.02 0.02 91 1013.4
20260906113018 74 44 0.0 2.0 0.00 0.02 0.02 92 1013.4
20260906112512 74 44 0.0 3.0 0.00 0.02 0.02 92 1013.5
20260906112015 74 44 1.0 3.0 0.00 0.02 0.02 92 1013.4
20260906111533 74 20 1.0 3.0 0.00 0.02 0.02 92 1013.4
20260906111015 74 20 1.0 3.0 0.00 0.02 0.02 92 1013.4
20260906110510 74 20 1.0 4.0 0.00 0.02 0.02 92 1013.5
20260906110032 74 309 2.0 5.0 0.00 0.02 0.02 92 1013.5
20260906105518 74 317 2.0 5.0 0.00 0.02 0.02 93 1013.5
20260906105008 73 333 2.0 4.0 0.00 0.02 0.02 93 1013.6
20260906104531 73 16 2.0 4.0 0.00 0.02 0.02 93 1013.5
20260906104013 73 18 1.0 3.0 0.00 0.02 0.02 92 1013.4
20260906103506 73 349 1.0 2.0 0.00 0.02 0.02 92 1013.2
20260906103004 73 296 1.0 2.0 0.00 0.02 0.02 92 1013.1
20260906102508 73 296 0.0 2.0 0.00 0.02 0.02 92 1013.0
20260906102002 73 296 0.0 2.0 0.00 0.02 0.02 92 1013.0
20260906101505 73 296 0.0 2.0 0.00 0.02 0.02 91 1013.0
20260906101002 73 296 0.0 2.0 0.01 0.02 0.02 91 1013.0
20260906100504 73 296 0.0 2.0 0.01 0.02 0.02 92 1013.1
20260906100004 73 296 1.0 4.0 0.01 0.02 0.02 92 1013.0
20260906095503 73 283 2.0 4.0 0.01 0.02 0.02 92 1012.9
20260906095003 73 9 2.0 3.0 0.01 0.02 0.02 92 1012.8
20260906094517 73 9 2.0 3.0 0.01 0.02 0.02 92 1012.8
20260906094004 73 9 2.0 3.0 0.01 0.02 0.02 92 1012.7
20260906093503 73 9 2.0 3.0 0.01 0.02 0.02 92 1012.7
20260906093012 73 9 2.0 3.0 0.01 0.02 0.02 92 1012.8
20260906092506 73 9 2.0 2.0 0.01 0.02 0.02 92 1012.8
20260906092003 73 9 1.0 2.0 0.01 0.02 0.02 92 1012.8
20260906091524 73 9 0.0 2.0 0.01 0.02 0.02 92 1012.9
20260906091004 73 9 1.0 2.0 0.00 0.01 0.01 92 1012.8
20260906090509 73 9 0.0 2.0 0.00 0.01 0.01 91 1012.9
20260906090005 73 9 0.0 2.0 0.00 0.01 0.01 92 1013.0
20260906085504 73 9 0.0 2.0 0.00 0.01 0.01 92 1013.0
20260906085005 73 9 1.0 3.0 0.00 0.01 0.01 92 1013.1
20260906084516 73 9 1.0 3.0 0.00 0.01 0.01 92 1013.0
20260906084004 73 9 1.0 3.0 0.00 0.01 0.01 92 1012.9
20260906083507 73 329 0.0 0.0 0.00 0.01 0.01 92 1012.8
20260906083014 73 329 0.0 0.0 0.00 0.01 0.01 92 1013.0
20260906082509 73 329 0.0 0.0 0.00 0.01 0.01 92 1012.9
20260906082008 73 329 0.0 0.0 0.00 0.01 0.01 92 1012.9
20260906081515 73 284 0.0 0.0 0.00 0.01 0.01 92 1012.8
20260906081009 73 233 0.0 2.0 0.00 0.01 0.01 92 1012.8
20260906080506 73 233 0.0 2.0 0.00 0.01 0.01 92 1012.7
20260906080006 74 233 1.0 2.0 0.00 0.01 0.01 92 1012.7
20260906075508 74 348 0.0 0.0 0.00 0.01 0.01 91 1012.8
20260906075004 74 348 0.0 2.0 0.00 0.01 0.01 91 1012.8
20260906074504 74 348 0.0 2.0 0.00 0.01 0.01 91 1012.8
20260906074004 74 348 0.0 2.0 0.00 0.01 0.01 91 1012.8
20260906073503 74 348 0.0 4.0 0.00 0.01 0.01 92 1012.8
20260906073008 74 348 2.0 4.0 0.00 0.01 0.01 92 1012.8
20260906072504 74 360 2.0 3.0 0.00 0.01 0.01 92 1012.8
20260906072005 74 33 1.0 2.0 0.00 0.01 0.01 91 1012.7
20260906071513 74 34 2.0 2.0 0.00 0.01 0.01 91 1012.7
20260906071006 74 213 0.0 2.0 0.00 0.01 0.01 92 1012.5
20260906070509 74 121 0.0 2.0 0.00 0.01 0.01 91 1012.5
20260906070014 74 113 2.0 2.0 0.01 0.01 0.01 90 1012.5
20260906065503 75 134 0.0 2.0 0.01 0.01 0.01 90 1012.4
20260906065015 75 133 0.0 2.0 0.01 0.01 0.01 91 1012.4
20260906064510 75 133 0.0 2.0 0.01 0.01 0.01 91 1012.4
20260906064012 75 135 0.0 2.0 0.01 0.01 0.01 91 1012.4
20260906063504 75 15 0.0 5.0 0.01 0.01 0.01 91 1012.4
20260906063009 75 360 2.0 5.0 0.01 0.01 0.01 91 1012.4
20260906062504 75 11 3.0 5.0 0.01 0.01 0.01 91 1012.6
20260906062005 75 306 3.0 5.0 0.01 0.01 0.01 91 1012.7
20260906061508 75 263 3.0 5.0 0.01 0.01 0.01 91 1012.7
20260906061008 75 278 3.0 5.0 0.01 0.01 0.01 91 1013.0
20260906060508 75 225 3.0 5.0 0.01 0.01 0.01 91 1013.2
20260906060022 75 67 0.0 4.0 0.00 0.00 0.00 92 1013.5
20260906055512 74 67 2.0 4.0 0.00 0.00 0.00 92 1013.6
20260906055005 74 128 3.0 4.0 0.00 0.00 0.00 92 1013.7
20260906054527 74 90 1.0 3.0 0.00 0.00 0.00 91 1013.5
20260906054010 74 25 0.0 0.0 0.00 0.00 0.00 91 1013.4
20260906053504 74 25 0.0 0.0 0.00 0.00 0.00 91 1013.3
20260906053030 74 24 0.0 0.0 0.00 0.00 0.00 91 1013.3
20260906052508 74 307 0.0 0.0 0.00 0.00 0.00 91 1013.4
20260906052005 74 284 0.0 0.0 0.00 0.00 0.00 91 1013.5
20260906051510 74 284 0.0 0.0 0.00 0.00 0.00 90 1013.6
20260906051005 74 284 0.0 0.0 0.00 0.00 0.00 90 1013.4
20260906050506 74 284 0.0 0.0 0.00 0.00 0.00 91 1013.4
20260906050043 74 276 0.0 0.0 0.00 0.00 0.00 90 1013.3
20260906045504 74 203 0.0 0.0 0.00 0.00 0.00 90 1013.3
20260906045010 74 203 0.0 0.0 0.00 0.00 0.00 90 1013.3
20260906044514 74 203 0.0 0.0 0.00 0.00 0.00 90 1013.4
20260906044012 74 158 0.0 0.0 0.00 0.00 0.00 90 1013.4
20260906043512 74 158 0.0 0.0 0.00 0.00 0.00 90 1013.6
20260906043012 74 158 0.0 0.0 0.00 0.00 0.00 90 1013.6
20260906042515 74 294 0.0 0.0 0.00 0.00 0.00 89 1013.6
20260906042010 75 321 0.0 0.0 0.00 0.00 0.00 90 1013.5
20260906041510 75 320 0.0 0.0 0.00 0.00 0.00 89 1013.5
20260906041017 75 320 0.0 0.0 0.00 0.00 0.00 90 1013.5
20260906040503 75 322 0.0 0.0 0.00 0.00 0.00 90 1013.7
20260906040015 75 295 0.0 0.0 0.00 0.00 0.00 89 1013.7
20260906035508 75 294 0.0 0.0 0.00 0.00 0.00 89 1013.4
20260906035009 75 286 0.0 0.0 0.00 0.00 0.00 89 1013.5
20260906034515 75 270 0.0 0.0 0.00 0.00 0.00 90 1013.4
20260906034010 75 15 0.0 0.0 0.00 0.00 0.00 90 1013.5
20260906033506 75 15 0.0 0.0 0.00 0.00 0.00 90 1013.6
20260906033027 75 15 0.0 0.0 0.00 0.00 0.00 89 1013.6
20260906032507 75 63 0.0 0.0 0.00 0.00 0.00 89 1013.5
20260906032014 75 56 0.0 1.0 0.00 0.00 0.00 89 1013.5
20260906031527 75 49 0.0 2.0 0.00 0.00 0.00 88 1013.5
20260906031002 75 24 1.0 2.0 0.00 0.00 0.00 88 1013.6
20260906030507 75 17 0.0 2.0 0.00 0.00 0.00 89 1013.5
20260906030002 75 16 0.0 2.0 0.00 0.00 0.00 89 1013.5
20260906025502 75 15 2.0 2.0 0.00 0.00 0.00 89 1013.5
20260906025003 75 15 0.0 2.0 0.00 0.00 0.00 88 1013.6
20260906024507 75 15 0.0 1.0 0.00 0.00 0.00 88 1013.7
20260906024003 75 15 0.0 2.0 0.00 0.00 0.00 88 1013.6
20260906023503 76 43 0.0 3.0 0.00 0.00 0.00 88 1013.5
20260906023002 76 17 1.0 3.0 0.00 0.00 0.00 88 1013.3
20260906022503 76 15 2.0 2.0 0.00 0.00 0.00 88 1013.2
20260906022005 76 360 1.0 2.0 0.00 0.00 0.00 88 1013.2
20260906021502 76 360 1.0 2.0 0.00 0.00 0.00 88 1013.2
20260906021003 76 244 0.0 0.0 0.00 0.00 0.00 87 1013.2
20260906020506 76 244 0.0 0.0 0.00 0.00 0.00 87 1013.2
20260906020005 76 244 0.0 0.0 0.00 0.00 0.00 87 1013.1
20260906015504 76 244 0.0 0.0 0.00 0.00 0.00 87 1012.8
20260906015003 76 244 0.0 0.0 0.00 0.00 0.00 86 1012.9
20260906014508 76 244 0.0 0.0 0.00 0.00 0.00 85 1012.7
20260906014003 77 244 0.0 0.0 0.00 0.00 0.00 85 1012.6
20260906013502 77 244 0.0 0.0 0.00 0.00 0.00 85 1012.6
20260906013008 77 244 0.0 0.0 0.00 0.00 0.00 84 1012.5
20260906012503 77 244 0.0 0.0 0.00 0.00 0.00 84 1012.5
20260906012005 78 244 0.0 0.0 0.00 0.00 0.00 83 1012.5
20260906011503 78 244 0.0 0.0 0.00 0.00 0.00 83 1012.2
20260906011002 78 244 0.0 2.0 0.00 0.00 0.00 82 1012.2
20260906010507 78 244 0.0 2.0 0.00 0.00 0.00 82 1012.1
20260906010003 79 244 0.0 2.0 0.00 0.00 0.00 81 1012.1
20260906005501 79 244 0.0 2.0 0.00 0.00 0.00 80 1012.1
20260906005003 80 244 0.0 3.0 0.00 0.00 0.00 79 1012.1
20260906004504 80 244 1.0 3.0 0.00 0.00 0.00 79 1011.9
20260906004005 81 266 1.0 3.0 0.00 0.00 0.00 78 1011.8
20260906003505 81 275 2.0 3.0 0.00 0.00 0.00 77 1011.9
20260906003005 81 284 0.0 3.0 0.00 0.00 0.00 77 1011.9
20260906002501 81 284 1.0 3.0 0.00 0.00 0.00 77 1012.1
20260906002003 82 319 1.0 4.0 0.00 0.00 0.00 76 1012.1
20260906001503 82 286 2.0 8.0 0.00 0.00 0.00 76 1012.1
20260906001004 82 279 2.0 8.0 0.00 0.00 0.00 76 1012.1
20260906000503 82 198 3.0 7.0 0.00 0.00 0.00 75 1012.0
20260906000007 82 287 3.0 7.0 0.00 0.00 0.00 75 1012.1
20260905235504 83 256 3.0 4.0 0.00 0.00 0.00 75 1012.0
20260905235002 83 244 1.0 4.0 0.00 0.00 0.00 74 1012.2
20260905234507 83 281 2.0 8.0 0.00 0.00 0.00 73 1012.2
20260905234007 83 281 3.0 8.0 0.00 0.00 0.00 73 1012.4
20260905233502 83 260 4.0 8.0 0.00 0.00 0.00 73 1012.4
20260905233021 84 271 5.0 9.0 0.00 0.00 0.00 73 1012.4
20260905232505 84 258 5.0 9.0 0.00 0.00 0.00 73 1012.3
20260905232008 84 239 4.0 7.0 0.00 0.00 0.00 73 1012.3
20260905231503 84 233 3.0 10.0 0.00 0.00 0.00 73 1012.3
20260905231004 84 235 3.0 10.0 0.00 0.00 0.00 74 1012.3
20260905230502 84 238 6.0 10.0 0.00 0.00 0.00 74 1012.3
20260905230004 85 257 4.0 11.0 0.00 0.00 0.00 73 1012.3
20260905225504 85 242 6.0 11.0 0.00 0.00 0.00 72 1012.1
20260905225003 86 257 4.0 9.0 0.00 0.00 0.00 71 1012.2
20260905224504 87 279 5.0 12.0 0.00 0.00 0.00 70 1012.2
20260905224005 87 232 6.0 12.0 0.00 0.00 0.00 69 1012.3
20260905223503 88 273 7.0 10.0 0.00 0.00 0.00 68 1012.1
20260905223004 88 226 2.0 12.0 0.00 0.00 0.00 69 1012.1
20260905222506 87 269 6.0 12.0 0.00 0.00 0.00 69 1012.1
20260905222009 87 235 5.0 12.0 0.00 0.00 0.00 69 1012.2
20260905221516 87 223 6.0 12.0 0.00 0.00 0.00 67 1012.3
20260905221003 88 227 3.0 13.0 0.00 0.00 0.00 68 1012.3
20260905220504 88 192 4.0 13.0 0.00 0.00 0.00 68 1012.2
20260905220003 88 273 7.0 11.0 0.00 0.00 0.00 68 1012.0
20260905215503 88 227 5.0 10.0 0.00 0.00 0.00 67 1012.0
20260905215003 88 280 6.0 12.0 0.00 0.00 0.00 67 1012.1
20260905214503 88 275 6.0 12.0 0.00 0.00 0.00 67 1012.0
20260905214006 89 229 7.0 12.0 0.00 0.00 0.00 65 1012.1
20260905213504 90 202 6.0 10.0 0.00 0.00 0.00 64 1012.1
20260905213004 89 254 5.0 11.0 0.00 0.00 0.00 64 1012.2
20260905212504 89 286 5.0 11.0 0.00 0.00 0.00 65 1012.2
20260905212003 89 218 7.0 12.0 0.00 0.00 0.00 65 1012.3
20260905211508 89 265 5.0 10.0 0.00 0.00 0.00 65 1012.3
20260905211003 88 236 4.0 9.0 0.00 0.00 0.00 66 1012.3
20260905210510 88 269 4.0 8.0 0.00 0.00 0.00 66 1012.4
20260905210007 88 259 4.0 10.0 0.00 0.00 0.00 67 1012.4
20260905205511 88 265 5.0 10.0 0.00 0.00 0.00 66 1012.5
20260905205005 88 268 4.0 11.0 0.00 0.00 0.00 65 1012.5
20260905204510 89 250 5.0 11.0 0.00 0.00 0.00 66 1012.7
20260905204003 89 271 5.0 9.0 0.00 0.00 0.00 64 1012.7
20260905203504 89 336 3.0 10.0 0.00 0.00 0.00 66 1012.7
20260905203005 90 251 6.0 15.0 0.00 0.00 0.00 64 1012.8
20260905202503 90 200 4.0 15.0 0.00 0.00 0.00 65 1012.7
20260905202009 90 194 7.0 15.0 0.00 0.00 0.00 64 1012.9
20260905201509 90 267 5.0 12.0 0.00 0.00 0.00 64 1012.9
20260905201008 90 306 4.0 12.0 0.00 0.00 0.00 66 1012.9
20260905200507 89 237 6.0 11.0 0.00 0.00 0.00 65 1012.9
20260905200021 89 244 8.0 14.0 0.00 0.00 0.00 65 1013.0
20260905195508 89 234 8.0 14.0 0.00 0.00 0.00 65 1013.0
20260905195005 90 245 6.0 12.0 0.00 0.00 0.00 65 1012.9
20260905194516 89 248 5.0 13.0 0.00 0.00 0.00 64 1013.0
20260905194005 90 229 7.0 13.0 0.00 0.00 0.00 63 1013.1
20260905193511 90 203 5.0 10.0 0.00 0.00 0.00 64 1013.1
20260905193025 90 204 5.0 11.0 0.00 0.00 0.00 65 1013.1
20260905192508 90 256 6.0 11.0 0.00 0.00 0.00 65 1013.1
20260905192005 90 252 4.0 9.0 0.00 0.00 0.00 65 1013.1
20260905191510 90 265 5.0 9.0 0.00 0.00 0.00 63 1013.1
20260905191004 90 219 3.0 10.0 0.00 0.00 0.00 63 1013.2
20260905190507 90 198 5.0 9.0 0.00 0.00 0.00 64 1013.3
20260905190014 90 344 4.0 10.0 0.00 0.00 0.00 65 1013.4
20260905185507 89 161 5.0 12.0 0.00 0.00 0.00 64 1013.6
20260905185010 89 242 4.0 12.0 0.00 0.00 0.00 66 1013.7
20260905184517 89 244 7.0 11.0 0.00 0.00 0.00 64 1013.7
20260905184012 89 179 4.0 10.0 0.00 0.00 0.00 66 1013.7
20260905183508 89 242 6.0 12.0 0.00 0.00 0.00 65 1013.7
20260905183029 88 232 4.0 12.0 0.00 0.00 0.00 66 1013.9
20260905182509 88 230 6.0 10.0 0.00 0.00 0.00 67 1014.0
20260905182006 87 266 3.0 12.0 0.00 0.00 0.00 69 1014.1
20260905181526 87 295 7.0 12.0 0.00 0.00 0.00 69 1014.3
20260905181005 87 220 6.0 13.0 0.00 0.00 0.00 69 1014.4
20260905180505 86 222 9.0 13.0 0.00 0.00 0.00 70 1014.6
20260905180009 87 222 9.0 13.0 0.00 0.00 0.00 70 1014.6
20260905175505 86 297 5.0 17.0 0.00 0.00 0.00 71 1014.7
20260905175009 85 306 8.0 17.0 0.00 0.00 0.00 72 1014.6
20260905174528 84 320 6.0 13.0 0.00 0.00 0.00 74 1014.7